TimeMST,TemperatureF,Dew PointF,Humidity,Sea Level PressureIn,VisibilityMPH,Wind Direction,Wind SpeedMPH,Gust SpeedMPH,PrecipitationIn,Events,Conditions,WindDirDegrees,DateUTC
12:53 AM,7.0,1.9,80,30.40,10.0,WNW,9.2,-,N/A,,Mostly Cloudy,300,2014-01-28 07:53:00
1:53 AM,8.1,1.9,76,30.40,10.0,WNW,10.4,-,N/A,,Overcast,290,2014-01-28 08:53:00
2:53 AM,6.1,-0.0,76,30.41,10.0,NW,6.9,-,N/A,,Mostly Cloudy,320,2014-01-28 09:53:00
3:53 AM,3.0,-2.9,76,30.42,10.0,NW,8.1,-,N/A,,Clear,310,2014-01-28 10:53:00
4:53 AM,3.0,-4.0,73,30.43,10.0,WNW,9.2,-,N/A,,Clear,290,2014-01-28 11:53:00
5:53 AM,3.0,-4.0,73,30.45,10.0,West,9.2,-,N/A,,Mostly Cloudy,280,2014-01-28 12:53:00
6:53 AM,1.9,-5.1,72,30.48,10.0,WNW,8.1,-,N/A,,Clear,290,2014-01-28 13:53:00
7:53 AM,3.9,-2.9,73,30.47,10.0,WNW,10.4,-,N/A,,Clear,290,2014-01-28 14:53:00
8:53 AM,10.9,3.0,70,30.45,10.0,WNW,11.5,-,N/A,,Clear,290,2014-01-28 15:53:00
9:53 AM,18.0,3.0,52,30.42,10.0,NNW,19.6,-,N/A,,Clear,330,2014-01-28 16:53:00
10:53 AM,21.9,1.9,42,30.40,10.0,NW,18.4,-,N/A,,Clear,310,2014-01-28 17:53:00
11:53 AM,25.0,-0.9,33,30.35,10.0,NW,16.1,27.6,N/A,,Clear,320,2014-01-28 18:53:00
12:53 PM,28.0,-4.0,25,30.29,10.0,NW,24.2,32.2,N/A,,Clear,320,2014-01-28 19:53:00
1:53 PM,30.0,-5.1,22,30.24,10.0,NW,25.3,28.8,N/A,,Clear,320,2014-01-28 20:53:00
2:53 PM,30.9,-6.0,20,30.22,10.0,NW,19.6,-,N/A,,Clear,320,2014-01-28 21:53:00
3:53 PM,30.9,-7.1,19,30.23,10.0,NNW,17.3,-,N/A,,Clear,330,2014-01-28 22:53:00
4:53 PM,21.0,3.9,48,30.26,10.0,WSW,10.4,-,N/A,,Clear,240,2014-01-28 23:53:00
5:53 PM,14.0,1.9,59,30.27,10.0,SW,10.4,-,N/A,,Clear,220,2014-01-29 00:53:00
6:53 PM,10.0,1.0,67,30.29,10.0,WSW,10.4,-,N/A,,Clear,240,2014-01-29 01:53:00
7:53 PM,9.0,1.0,70,30.27,10.0,WSW,13.8,-,N/A,,Clear,240,2014-01-29 02:53:00
8:53 PM,7.0,-0.0,73,30.25,10.0,West,8.1,-,N/A,,Clear,260,2014-01-29 03:53:00
9:53 PM,14.0,3.9,64,30.20,10.0,West,12.7,-,N/A,,Clear,270,2014-01-29 04:53:00
10:53 PM,8.1,-0.9,67,30.19,10.0,West,10.4,-,N/A,,Clear,260,2014-01-29 05:53:00
11:53 PM,10.0,1.0,67,30.15,10.0,WNW,9.2,-,N/A,,Clear,290,2014-01-29 06:53:00